Weather History for KGAG - August, 2014

Change the Weather History Date:

Friday, August 29, 2014

  Actual Average Record
Temperature  
Mean Temperature 76 °F -  
Max Temperature 89 °F 90 °F 106 °F (1951)
Min Temperature 63 °F 64 °F 45 °F (1988)
Cooling Degree Days 11    
Growing Degree Days 26 (Base 50)    
Moisture  
Dew Point 61 °F    
Average Humidity 71    
Maximum Humidity 97    
Minimum Humidity 28    
Precipitation  
Precipitation 0.01 in - - ()
Sea Level Pressure  
Sea Level Pressure 29.89 in    
Wind  
Wind Speed 7 mph (West)    
Max Wind Speed 15 mph    
Max Gust Speed 23 mph    
Visibility 10 miles    
Events Rain    
Averages and records for this station are not official NWS values.
T = Trace of Precipitation, MM = Missing Value Source: NWS Daily Summary

Daily Weather History Graph

Daily Weather History Graph

Search for Another Location

Airport or City:

Trip Planner

Search our weather history database for the weather conditions in past years. The results will help you decide how hot, cold, wet, or windy it might be!

Date:

Astronomy

Aug. 29, 2014 Rise Set
Actual Time 7:08 AM CDT 8:11 PM CDT
Civil Twilight 6:41 AM CDT 8:37 PM CDT
Nautical Twilight 6:10 AM CDT 9:08 PM CDT
Astronomical Twilight 5:37 AM CDT 9:41 PM CDT
Moon 10:51 AM CDT (8/29) 10:18 PM CDT (8/29)
Length of Visible Light 13h 55m
Length of Day
13h 02m
Waxing Crescent, 15% of the Moon is Illuminated
Aug 29
Waxing Crescent
Sep 2
First Quarter
Sep 8
Full
Sep 15
Last Quarter
Sep 24
New

Hourly Weather History & Observations

Time (CDT) Temp. Heat Index Dew Point Humidity Pressure Visibility Wind Dir Wind Speed Gust Speed Precip Events Conditions
12:37 AM 66.9 °F - 63.0 °F 87% 30.01 in 10.0 mi North 12.7 mph 23.0 mph 0.00 in Rain Light Rain
12:44 AM 66.0 °F - 64.0 °F 93% 30.01 in 10.0 mi North 5.8 mph - 0.00 in Rain Light Rain
12:53 AM 66.0 °F - 64.0 °F 93% 29.93 in 10.0 mi North 3.5 mph - 0.00 in Rain Light Rain
1:04 AM 66.9 °F - 64.9 °F 93% 30.01 in 10.0 mi Calm Calm - 0.00 in   Overcast
2:53 AM 66.0 °F - 64.0 °F 93% 29.86 in 10.0 mi Calm Calm - 0.01 in   Clear
3:53 AM 64.9 °F - 63.0 °F 93% 29.86 in 10.0 mi WSW 8.1 mph - N/A   Clear
4:53 AM 64.0 °F - 62.1 °F 93% 29.88 in 10.0 mi SW 5.8 mph - N/A   Clear
5:53 AM 64.0 °F - 62.1 °F 93% 29.87 in 10.0 mi SW 6.9 mph - N/A   Clear
6:53 AM 63.0 °F - 62.1 °F 97% 29.88 in 10.0 mi WNW 5.8 mph - N/A   Clear
7:53 AM 64.0 °F - 63.0 °F 96% 29.90 in 10.0 mi SSW 4.6 mph - N/A   Clear
8:53 AM 66.0 °F - 64.0 °F 93% 29.91 in 10.0 mi SW 10.4 mph - N/A   Overcast
9:53 AM 71.1 °F - 64.9 °F 81% 29.90 in 8.0 mi SW 9.2 mph - N/A   Scattered Clouds
10:53 AM 73.9 °F - 64.0 °F 71% 29.89 in 10.0 mi Variable 4.6 mph - N/A   Clear
11:53 AM 77.0 °F - 63.0 °F 62% 29.88 in 10.0 mi West 5.8 mph - N/A   Clear
12:53 PM 81.0 °F 82.2 °F 63.0 °F 54% 29.86 in 10.0 mi WSW 9.2 mph - N/A   Clear
1:53 PM 84.0 °F 83.3 °F 57.0 °F 40% 29.85 in 10.0 mi WNW 10.4 mph 17.3 mph N/A   Clear
2:53 PM 87.8 °F 85.7 °F 53.6 °F 31% 29.91 in 10.0 mi WNW 12.7 mph 20.7 mph N/A   Mostly Cloudy
3:53 PM 89.1 °F 86.7 °F 53.1 °F 29% 29.81 in 10.0 mi NW 9.2 mph - N/A   Clear
4:53 PM 87.1 °F - 50.0 °F 28% 29.81 in 10.0 mi WNW 10.4 mph - N/A   Clear
5:53 PM 87.1 °F - 51.1 °F 29% 29.81 in 10.0 mi NNW 15.0 mph 20.7 mph N/A   Clear
6:53 PM 86.0 °F 84.2 °F 54.0 °F 33% 29.82 in 10.0 mi North 6.9 mph - N/A   Clear
7:53 PM 80.1 °F 80.6 °F 57.9 °F 47% 29.83 in 10.0 mi NNE 4.6 mph - N/A   Clear
8:53 PM 71.1 °F - 63.0 °F 75% 29.86 in 10.0 mi South 4.6 mph - N/A   Clear
9:53 PM 68.0 °F - 60.8 °F 78% 29.94 in 10.0 mi South 6.9 mph - N/A   Clear
10:53 PM 66.9 °F - 61.0 °F 81% 29.89 in 10.0 mi Calm Calm - N/A   Clear
11:53 PM 66.9 °F - 61.0 °F 81% 29.91 in 10.0 mi WSW 3.5 mph - N/A   Clear